[[{"header":{"parameterUnit":"m.s-1","parameterCategory":1,"la1":30.2991,"la2":30.254,"lo1":-89.0895,"lo2":-89.0444,"dy":0.0017,"dx":0.0017,"nx":28,"ny":28,"refTime":"2026-01-30T03:00:00:Z","depth":0,"parameterNumber":2,"parameterNumberName":"U-component_of_WINDS"},"data":[0,0,0,0,0,0,0,0,0,0,0,0,0,0,0,0,0,0,0,0,0,0,0,0,0,0,0,0,0,0,0,0,0,0,0,0,0,0,0,0,0,0,0,0,0,0,0,0,0,0,0,0,0,0,0,0,0,0,3.7889,3.789,0,3.7943,3.7944,3.7945,3.7908,3.7907,3.7905,3.7903,3.7957,3.796,3.7963,0,0,0,0,0,0,0,0,0,0,0,0,0,3.7754,3.7756,3.7889,3.789,3.789,3.7943,3.7944,3.7945,3.7908,3.7906,3.7904,3.7903,3.7956,3.796,3.7963,0,0,0,0,0,0,0,0,0,0,0,0,0,3.7811,3.7757,3.7889,3.7879,3.7878,3.7943,3.7944,3.7945,3.7909,3.7906,3.7904,3.7902,3.7955,3.7959,3.7964,3.8041,0,0,3.7977,3.7979,0,0,0,0,0,0,0,0,3.7808,3.7816,3.7879,3.788,3.7879,3.7916,3.7916,3.7977,3.791,3.7897,3.7903,3.79,3.7946,3.7951,3.7966,3.8044,3.8046,3.7978,3.7981,3.7983,3.7984,0,0,0,0,0,0,0,3.7804,3.7813,3.791,3.788,3.788,3.7871,3.7877,3.7927,3.7935,3.7898,3.7896,3.7903,3.7945,3.7962,3.7967,3.8047,3.7978,3.7982,3.7984,3.7986,3.8192,3.8194,0,0,0,0,0,0,3.7801,3.781,3.7909,3.7912,3.7837,3.7876,3.7882,3.7907,3.7934,3.7936,3.7905,3.7901,3.7956,3.7962,3.7969,3.8062,3.7982,3.7987,3.7989,3.8189,3.8192,3.8195,0,0,0,0,0,0,3.7798,3.781,3.7906,3.786,3.7872,3.7881,3.7909,3.7909,3.7926,3.7939,3.794,3.7921,3.7954,3.7963,3.8024,3.8063,3.7989,3.7993,3.8186,3.819,3.8194,3.8248,0,0,0,0,0,0,3.7794,3.7809,3.7838,3.7861,3.7875,3.7961,3.7912,3.7912,3.7934,3.793,3.7954,3.7956,3.7953,3.8017,3.8028,3.8068,3.7996,3.8182,3.8188,3.8193,3.8242,3.8253,3.8262,0,0,0,0,0,3.7789,3.7851,3.784,3.7852,3.7912,3.7963,3.797,3.7966,3.7938,3.7967,3.7976,3.7955,3.8058,3.8024,3.8036,3.8077,3.818,3.8186,3.8192,3.8238,3.8251,3.8262,0,0,0,0,0,0,3.7831,3.7853,3.7842,3.7912,3.7936,3.7957,3.7994,3.798,3.8011,3.8006,3.7998,3.8004,3.8068,3.8079,3.8041,3.8155,3.8114,3.8123,3.8145,3.8157,3.8167,3.8163,3.8,0,0,0,0,0,3.7848,3.7888,3.7906,3.7966,3.7979,3.7985,3.8007,3.8002,3.8026,3.8035,3.8048,3.8072,3.8109,3.8134,3.8169,3.8244,3.8249,3.8279,3.8289,3.8297,3.8305,3.8346,3.836,3.8216,3.8216,3.8216,0,0,3.7884,3.7902,3.7927,3.7975,3.7993,3.8035,3.7993,3.8039,3.8069,3.8042,3.81,3.8111,3.8137,3.8206,3.8237,3.8217,3.8346,3.8305,3.8312,3.8315,3.8354,3.8367,3.838,3.822,3.8219,3.8219,0,0,3.7971,3.7989,3.8041,3.8061,3.8089,3.8092,3.8105,3.8129,3.8135,3.8194,3.8174,3.8211,3.8276,3.8296,3.8314,3.8412,3.8394,3.8424,3.8475,3.8516,3.8527,3.8537,3.8572,3.8584,3.8431,3.8431,3.8432,0,3.8012,3.8074,3.807,3.8118,3.8139,3.8118,3.8172,3.819,3.8228,3.8244,3.8222,3.8304,3.832,3.8393,3.8417,3.8433,3.8448,3.842,3.8526,3.8536,3.8545,3.8578,3.8591,3.8435,3.8434,3.8434,3.8434,0,3.8124,3.8167,3.8207,3.8245,3.8272,3.8322,3.8325,3.8353,3.8346,3.8352,3.8413,3.8433,3.8472,3.8489,3.8482,3.8562,3.8549,3.8527,3.8486,3.8562,3.8593,3.8606,3.844,3.8438,3.8437,3.8437,0,0,3.8236,3.8273,3.8287,3.8305,3.8336,3.8369,3.8419,3.8459,3.8482,3.851,3.8552,3.8608,3.8588,3.861,3.8605,3.8641,3.8718,3.8614,3.8614,3.8632,3.8807,3.8824,3.8838,3.8707,3.8709,3.8711,3.8805,0,3.8324,3.8412,3.841,3.8491,3.8532,3.8513,3.8557,3.8581,3.8589,3.8624,3.8633,3.8673,3.8643,3.8656,3.8691,3.8701,3.8752,3.8694,3.8745,3.8747,3.8738,3.8854,3.8871,3.8959,3.8817,3.8819,3.8821,0,3.8438,3.8471,3.8557,3.8583,3.86,3.8639,3.8676,3.871,3.8737,3.874,3.8766,3.8756,3.8807,3.8767,3.8837,3.8798,3.8819,3.8827,3.8831,3.8834,3.8788,3.8861,3.8987,3.9,3.884,3.8838,3.8837,0,3.8512,3.8577,3.8637,3.8653,3.8685,3.8713,3.8727,3.8752,3.8776,3.8809,3.8825,3.8862,3.8883,3.8912,3.8914,3.8884,3.8985,3.8944,3.8989,3.8989,3.901,3.9008,3.9141,3.9025,3.9025,3.9025,3.9025,0,3.861,3.8663,3.867,3.8707,3.8766,3.8765,3.8823,3.8835,3.8858,3.8897,3.8883,3.892,3.892,3.8958,3.8959,3.9018,3.9027,3.9031,3.9031,3.9032,3.9031,3.9045,3.9038,3.9028,3.9028,3.9027,3.9026,0,3.8701,3.8708,3.8772,3.8798,3.8806,3.8848,3.887,3.8905,3.8913,3.8963,3.8974,3.8986,3.903,3.9035,3.9085,3.9086,3.9157,3.915,3.9148,3.9147,3.9191,3.9187,3.9336,3.9355,3.9228,3.9229,3.923,0,3.8762,3.8803,3.8834,3.8859,3.8876,3.8917,3.8942,3.8943,3.897,3.9005,3.9036,3.9079,3.9113,3.9184,3.9197,3.9236,3.923,3.928,3.9236,3.9236,3.923,3.9228,3.9232,3.9288,3.9289,3.929,3.9291,0,3.8871,3.8874,3.891,3.895,3.8981,3.9011,3.904,3.9062,3.9066,3.9097,3.9142,3.9169,3.9222,3.9265,3.9304,3.9319,3.9306,3.9305,3.9318,3.9319,3.9315,3.9318,3.917,3.9301,3.93,3.93,3.9299,3.9299,3.8949,3.8985,3.9013,3.9055,3.9077,3.9105,3.9139,3.9152,3.919,3.9233,3.9232,3.9282,3.9309,3.9361,3.9379,3.9418,3.9401,3.9419,3.9424,3.9428,3.9433,3.9311,3.9425,3.9425,3.9425,3.9424,3.9424,0,3.9057,3.9075,3.9114,3.9155,3.9189,3.9175,3.9207,3.9236,3.928,3.9307,3.9342,3.9394,3.9436,3.9454,3.9495,3.9523,3.9518,3.9534,3.9531,3.9535,3.9445,3.943,3.9537,3.9537,3.9537,3.9537,3.9537,3.9537,3.9117,3.9177,3.9183,3.9254,3.9271,3.932,3.9339,3.9365,3.9387,3.9446,3.9482,3.9493,3.9517,3.956,3.9598,3.9602,3.9618,3.9636,3.9637,3.9553,3.9541,3.953,3.9516,3.9639,3.9639,3.9724,3.9724,3.9725]},{"header":{"parameterUnit":"m.s-1","parameterCategory":1,"la1":30.2991,"la2":30.254,"lo1":-89.0895,"lo2":-89.0444,"dy":0.0017,"dx":0.0017,"nx":28,"ny":28,"refTime":"2026-01-30T03:00:00:Z","depth":0,"parameterNumber":3,"parameterNumberName":"V-component_of_WINDS"},"data":[0,0,0,0,0,0,0,0,0,0,0,0,0,0,0,0,0,0,0,0,0,0,0,0,0,0,0,0,0,0,0,0,0,0,0,0,0,0,0,0,0,0,0,0,0,0,0,0,0,0,0,0,0,0,0,0,0,0,-8.8497,-8.85,0,-8.8727,-8.873,-8.8732,-8.8658,-8.8653,-8.8648,-8.8643,-8.8874,-8.8884,-8.8895,0,0,0,0,0,0,0,0,0,0,0,0,0,-8.799,-8.8,-8.8497,-8.85,-8.8503,-8.8727,-8.873,-8.8733,-8.8658,-8.8652,-8.8647,-8.8641,-8.887,-8.8883,-8.8896,0,0,0,0,0,0,0,0,0,0,0,0,0,-8.8214,-8.8003,-8.8497,-8.8493,-8.8495,-8.8726,-8.873,-8.8734,-8.866,-8.8652,-8.8645,-8.8638,-8.8866,-8.8882,-8.8898,-8.9145,0,0,-8.8947,-8.8954,0,0,0,0,0,0,0,0,-8.8202,-8.8233,-8.8491,-8.8494,-8.8496,-8.8656,-8.8636,-8.8871,-8.8662,-8.8597,-8.8643,-8.8634,-8.8807,-8.8828,-8.8887,-8.9156,-8.9166,-8.8948,-8.8958,-8.8965,-8.8969,0,0,0,0,0,0,0,-8.8186,-8.8223,-8.8588,-8.8494,-8.8498,-8.8478,-8.8502,-8.868,-8.8741,-8.8602,-8.8597,-8.8626,-8.8807,-8.8871,-8.8892,-8.9169,-8.8948,-8.8962,-8.8972,-8.8978,-8.9653,-8.9661,0,0,0,0,0,0,-8.817,-8.821,-8.8581,-8.8595,-8.8328,-8.8494,-8.852,-8.8612,-8.8738,-8.8751,-8.8632,-8.8621,-8.8848,-8.8873,-8.8899,-8.9198,-8.8965,-8.898,-8.8989,-8.9645,-8.9655,-8.9664,0,0,0,0,0,0,-8.8159,-8.8203,-8.8571,-8.8401,-8.8447,-8.851,-8.8614,-8.8621,-8.8685,-8.8761,-8.8771,-8.8687,-8.8843,-8.8877,-8.9085,-8.9205,-8.8987,-8.9002,-8.9635,-8.9648,-8.9659,-8.9797,0,0,0,0,0,0,-8.8145,-8.82,-8.8295,-8.8404,-8.8456,-8.8755,-8.8622,-8.863,-8.8713,-8.8702,-8.8815,-8.8827,-8.884,-8.9061,-8.9101,-8.9223,-8.9014,-8.9625,-8.9641,-8.9655,-8.9782,-8.9813,-8.9839,0,0,0,0,0,-8.8127,-8.8324,-8.8301,-8.8346,-8.8577,-8.8762,-8.8791,-8.8804,-8.8723,-8.882,-8.8868,-8.8823,-8.9186,-8.9083,-8.9127,-8.9256,-8.9617,-8.9636,-8.9654,-8.9769,-8.9807,-8.9838,0,0,0,0,0,0,-8.8226,-8.8338,-8.8313,-8.8552,-8.8648,-8.8749,-8.887,-8.8842,-8.8962,-8.8946,-8.8955,-8.8981,-8.9195,-8.9246,-8.913,-8.9502,-8.9389,-8.9417,-8.9462,-8.9498,-8.9525,-8.9509,-8.9028,0,0,0,0,0,-8.8276,-8.8418,-8.8507,-8.8709,-8.8759,-8.8807,-8.8887,-8.8889,-8.8988,-8.9028,-8.9092,-8.9189,-8.9325,-8.9414,-8.9543,-8.9789,-8.9812,-8.9899,-8.9927,-8.995,-8.9975,-9.0109,-9.0149,-8.9725,-8.9725,-8.9724,0,0,-8.838,-8.8458,-8.8547,-8.8731,-8.8805,-8.8951,-8.8841,-8.9,-8.9108,-8.9051,-8.9253,-8.9303,-8.9412,-8.9641,-8.9744,-8.969,-9.0097,-8.9974,-8.9992,-9.0004,-9.0132,-9.0173,-9.0208,-8.9738,-8.9735,-8.9733,0,0,-8.8644,-8.8718,-8.8894,-8.8972,-8.9087,-8.9118,-8.916,-8.9266,-8.9298,-8.9501,-8.9462,-8.9589,-8.9823,-8.9902,-8.9973,-9.0269,-9.0232,-9.031,-9.0458,-9.059,-9.0623,-9.0653,-9.0759,-9.0796,-9.0334,-9.0335,-9.0335,0,-8.8758,-8.8977,-8.8988,-8.9151,-8.9233,-8.919,-8.9369,-8.9443,-8.9594,-8.9651,-8.9588,-8.9881,-8.9951,-9.0198,-9.0271,-9.0329,-9.0377,-9.0298,-9.0618,-9.0647,-9.0675,-9.0776,-9.0816,-9.0344,-9.0343,-9.0342,-9.0341,0,-8.9112,-8.9265,-8.9394,-8.9543,-8.9639,-8.9809,-8.9844,-8.994,-8.9933,-8.9971,-9.0177,-9.026,-9.0406,-9.0464,-9.0458,-9.0711,-9.0674,-9.0614,-9.0501,-9.0724,-9.0819,-9.0858,-9.0356,-9.0353,-9.035,-9.0348,0,0,-8.9445,-8.9599,-8.9646,-8.9713,-8.9838,-8.9956,-9.0123,-9.0267,-9.035,-9.0455,-9.0596,-9.0795,-9.0742,-9.0822,-9.0825,-9.094,-9.1169,-9.0866,-9.0869,-9.092,-9.1453,-9.1498,-9.1542,-9.1145,-9.1153,-9.1159,-9.1444,0,-8.972,-9.0016,-9.0031,-9.03,-9.0442,-9.0404,-9.055,-9.0641,-9.0681,-9.0806,-9.0848,-9.099,-9.0908,-9.0956,-9.1069,-9.1118,-9.1276,-9.1097,-9.1275,-9.1282,-9.125,-9.1592,-9.1639,-9.1905,-9.1482,-9.1488,-9.1492,0,-9.008,-9.0199,-9.0483,-9.0588,-9.0648,-9.078,-9.0913,-9.1033,-9.1136,-9.1156,-9.1248,-9.1234,-9.1405,-9.1286,-9.1521,-9.1398,-9.1472,-9.1507,-9.1518,-9.1535,-9.1401,-9.1619,-9.199,-9.203,-9.1551,-9.1546,-9.1542,0,-9.0295,-9.0526,-9.0726,-9.0785,-9.0912,-9.1006,-9.1063,-9.1159,-9.1245,-9.1361,-9.1417,-9.1551,-9.1624,-9.1728,-9.175,-9.1661,-9.1986,-9.1868,-9.2007,-9.2007,-9.2077,-9.2073,-9.2466,-9.2125,-9.2124,-9.2123,-9.2122,0,-9.0601,-9.0776,-9.0824,-9.0948,-9.1143,-9.1157,-9.135,-9.14,-9.1486,-9.1618,-9.1592,-9.1716,-9.1738,-9.1866,-9.1884,-9.2077,-9.211,-9.2131,-9.2133,-9.2134,-9.2131,-9.2182,-9.2164,-9.2134,-9.2132,-9.2129,-9.2128,0,-9.0874,-9.0913,-9.1129,-9.1233,-9.1263,-9.1402,-9.1491,-9.1608,-9.1645,-9.1812,-9.1851,-9.1909,-9.2059,-9.2091,-9.2268,-9.2281,-9.2509,-9.2494,-9.2475,-9.2474,-9.2612,-9.2599,-9.3052,-9.3112,-9.2731,-9.2734,-9.2737,0,-9.1066,-9.1201,-9.132,-9.1407,-9.1469,-9.161,-9.1698,-9.1717,-9.181,-9.1938,-9.204,-9.2188,-9.2307,-9.2548,-9.2604,-9.274,-9.2727,-9.2877,-9.2747,-9.2743,-9.273,-9.2722,-9.2736,-9.2901,-9.2906,-9.2909,-9.2912,0,-9.1405,-9.1418,-9.1547,-9.1684,-9.179,-9.1898,-9.2001,-9.2073,-9.2107,-9.2212,-9.2366,-9.2459,-9.2641,-9.2787,-9.2923,-9.298,-9.2953,-9.2952,-9.2991,-9.2993,-9.2977,-9.2988,-9.2543,-9.2941,-9.2938,-9.2936,-9.2935,-9.2933,-9.1644,-9.1762,-9.1865,-9.2009,-9.2089,-9.2186,-9.2302,-9.2354,-9.2483,-9.2634,-9.2638,-9.2806,-9.2905,-9.3085,-9.3151,-9.3282,-9.3235,-9.3292,-9.3307,-9.3321,-9.3334,-9.2956,-9.3307,-9.3306,-9.3305,-9.3304,-9.3304,0,-9.1981,-9.2046,-9.2179,-9.2325,-9.2438,-9.2403,-9.2516,-9.2613,-9.2762,-9.2858,-9.2976,-9.3153,-9.3295,-9.3364,-9.3504,-9.3596,-9.3586,-9.3632,-9.3625,-9.3639,-9.3367,-9.3319,-9.3637,-9.3637,-9.3637,-9.3637,-9.3637,-9.3637,-9.217,-9.2369,-9.2394,-9.2631,-9.2694,-9.286,-9.2927,-9.3016,-9.3093,-9.3293,-9.3412,-9.3456,-9.3541,-9.3687,-9.3816,-9.3832,-9.3885,-9.3938,-9.3948,-9.3692,-9.3658,-9.3626,-9.3581,-9.3949,-9.3949,-9.4209,-9.4211,-9.4213]}]]